| time (UTC) | temp C | wind direction | speed KPH | gust KPH | rain 1hr cm | rain 24hr cm | rain mn cm | humidity % | barometer mb |
| 20260502160623 | 11 | 255 | 9.7 | 25.7 | 0.00 | 0.00 | 0.00 | 42 | 1019.3 |
| 20260502151833 | 10 | 262 | 11.3 | 16.1 | 0.00 | 0.00 | 0.00 | 51 | 1018.9 |
| 20260502151241 | 10 | 262 | 6.4 | 6.4 | 0.00 | 0.00 | 0.00 | 50 | 1018.9 |
| 20260502150650 | 10 | 261 | 12.9 | 19.3 | 0.00 | 0.00 | 0.00 | 48 | 1018.9 |
| 20260502130631 | 6 | 215 | 3.2 | 16.1 | 0.00 | 0.00 | 0.00 | 91 | 1019.3 |
| 20260502123635 | 4 | 160 | 1.6 | 3.2 | 0.00 | 0.00 | 0.00 | 99 | 1019.3 |
| 20260502122440 | 3 | 151 | 1.6 | 1.6 | 0.00 | 0.00 | 0.00 | 99 | 1019.3 |
| 20260502121222 | 2 | 159 | 1.6 | 3.2 | 0.00 | 0.00 | 0.00 | 99 | 1019.3 |
| 20260502120644 | 2 | 94 | 1.6 | 1.6 | 0.00 | 0.00 | 0.00 | 99 | 1019.3 |
| 20260502115451 | 2 | 92 | 0.0 | 0.0 | 0.00 | 0.00 | 0.00 | 99 | 1019.3 |
| 20260502114813 | 2 | 92 | 0.0 | 1.6 | 0.00 | 0.00 | 0.00 | 99 | 1019.3 |
| 20260502114232 | 1 | 92 | 0.0 | 0.0 | 0.00 | 0.00 | 0.00 | 99 | 1019.6 |
| 20260502113611 | 1 | 92 | 0.0 | 0.0 | 0.00 | 0.00 | 0.00 | 99 | 1019.3 |
| 20260502113039 | 1 | 92 | 1.6 | 1.6 | 0.00 | 0.00 | 0.00 | 99 | 1019.3 |
| 20260502112437 | 1 | 92 | 0.0 | 1.6 | 0.00 | 0.00 | 0.00 | 99 | 1019.3 |
| 20260502111828 | 1 | 92 | 1.6 | 1.6 | 0.00 | 0.00 | 0.00 | 99 | 1019.3 |
| 20260502111226 | 1 | 92 | 1.6 | 1.6 | 0.00 | 0.00 | 0.00 | 99 | 1019.3 |
| 20260502110017 | 1 | 92 | 0.0 | 0.0 | 0.00 | 0.00 | 0.00 | 99 | 1019.3 |
| 20260502105418 | 1 | 92 | 0.0 | 0.0 | 0.00 | 0.00 | 0.00 | 99 | 1018.9 |
| 20260502104829 | 1 | 92 | 0.0 | 1.6 | 0.00 | 0.00 | 0.00 | 99 | 1019.3 |
| 20260502104217 | 1 | 92 | 0.0 | 0.0 | 0.00 | 0.00 | 0.00 | 99 | 1019.3 |
| 20260502103635 | 1 | 92 | 0.0 | 0.0 | 0.00 | 0.00 | 0.00 | 99 | 1019.3 |
| 20260502103043 | 1 | 92 | 0.0 | 1.6 | 0.00 | 0.00 | 0.00 | 99 | 1019.3 |
| 20260502102419 | 1 | 92 | 1.6 | 1.6 | 0.00 | 0.00 | 0.00 | 99 | 1019.3 |
| 20260502101846 | 1 | 92 | 0.0 | 0.0 | 0.00 | 0.00 | 0.00 | 99 | 1019.3 |
| 20260502100630 | 1 | 92 | 0.0 | 0.0 | 0.00 | 0.00 | 0.00 | 99 | 1019.3 |
| 20260502091252 | 1 | 92 | 0.0 | 1.6 | 0.00 | 0.00 | 0.00 | 99 | 1019.6 |
| 20260502090624 | 1 | 92 | 0.0 | 1.6 | 0.00 | 0.00 | 0.00 | 98 | 1019.6 |
| 20260502071224 | 2 | 92 | 0.0 | 0.0 | 0.00 | 0.00 | 0.00 | 98 | 1018.9 |
| 20260502070652 | 2 | 92 | 0.0 | 0.0 | 0.00 | 0.00 | 0.00 | 98 | 1018.9 |
| 20260502070035 | 2 | 92 | 0.0 | 0.0 | 0.00 | 0.00 | 0.00 | 98 | 1018.9 |
| 20260502063651 | 1 | 92 | 0.0 | 0.0 | 0.00 | 0.00 | 0.00 | 98 | 1019.3 |
| 20260502063042 | 1 | 92 | 0.0 | 0.0 | 0.00 | 0.00 | 0.00 | 98 | 1019.3 |
| 20260502061814 | 1 | 92 | 0.0 | 1.6 | 0.00 | 0.00 | 0.00 | 98 | 1019.3 |
| 20260502061249 | 1 | 92 | 0.0 | 0.0 | 0.00 | 0.00 | 0.00 | 98 | 1019.6 |
| 20260502060622 | 1 | 92 | 0.0 | 0.0 | 0.00 | 0.00 | 0.00 | 98 | 1019.6 |
| 20260502060047 | 2 | 92 | 0.0 | 0.0 | 0.00 | 0.00 | 0.00 | 98 | 1019.6 |
| 20260502055448 | 2 | 92 | 0.0 | 0.0 | 0.00 | 0.00 | 0.00 | 98 | 1019.6 |
| 20260502054820 | 1 | 92 | 0.0 | 0.0 | 0.00 | 0.00 | 0.00 | 98 | 1019.6 |
| 20260502054251 | 2 | 92 | 0.0 | 0.0 | 0.00 | 0.00 | 0.00 | 97 | 1019.6 |
| 20260502053021 | 2 | 92 | 0.0 | 0.0 | 0.00 | 0.00 | 0.00 | 97 | 1019.9 |
| 20260502052415 | 2 | 92 | 0.0 | 0.0 | 0.00 | 0.00 | 0.00 | 97 | 1019.6 |
| 20260502051826 | 2 | 92 | 0.0 | 0.0 | 0.00 | 0.00 | 0.00 | 97 | 1019.6 |
| 20260502051220 | 2 | 92 | 0.0 | 0.0 | 0.00 | 0.00 | 0.00 | 97 | 1019.9 |
| 20260502050628 | 2 | 92 | 0.0 | 0.0 | 0.00 | 0.00 | 0.00 | 97 | 1019.9 |
| 20260502050039 | 1 | 92 | 0.0 | 0.0 | 0.00 | 0.00 | 0.00 | 97 | 1019.9 |
| 20260502045433 | 2 | 92 | 0.0 | 0.0 | 0.00 | 0.00 | 0.00 | 97 | 1019.9 |
| 20260502044838 | 2 | 92 | 0.0 | 0.0 | 0.00 | 0.00 | 0.00 | 97 | 1019.9 |
| 20260502043629 | 2 | 92 | 0.0 | 0.0 | 0.00 | 0.00 | 0.00 | 97 | 1019.9 |
| 20260502043043 | 2 | 92 | 0.0 | 0.0 | 0.00 | 0.00 | 0.00 | 97 | 1019.6 |
| 20260502042435 | 2 | 92 | 0.0 | 0.0 | 0.00 | 0.00 | 0.00 | 97 | 1019.9 |
| 20260502041810 | 2 | 92 | 0.0 | 0.0 | 0.00 | 0.00 | 0.00 | 96 | 1019.9 |
| 20260502041217 | 2 | 92 | 0.0 | 0.0 | 0.00 | 0.00 | 0.00 | 96 | 1019.9 |
| 20260502040649 | 2 | 92 | 0.0 | 0.0 | 0.00 | 0.00 | 0.00 | 96 | 1019.6 |
| 20260502040019 | 2 | 92 | 0.0 | 0.0 | 0.00 | 0.00 | 0.00 | 96 | 1019.6 |
| 20260502035442 | 2 | 92 | 0.0 | 0.0 | 0.00 | 0.00 | 0.05 | 96 | 1019.6 |
| 20260502034810 | 2 | 92 | 0.0 | 0.0 | 0.00 | 0.00 | 0.05 | 96 | 1019.3 |
| 20260502034246 | 2 | 92 | 0.0 | 0.0 | 0.00 | 0.00 | 0.05 | 96 | 1019.6 |
| 20260502033649 | 3 | 92 | 0.0 | 0.0 | 0.00 | 0.00 | 0.05 | 96 | 1019.6 |
| 20260502033012 | 3 | 92 | 0.0 | 0.0 | 0.00 | 0.00 | 0.05 | 95 | 1019.6 |
| 20260502032426 | 3 | 92 | 0.0 | 0.0 | 0.00 | 0.00 | 0.05 | 95 | 1019.6 |
| 20260502031841 | 3 | 92 | 0.0 | 0.0 | 0.00 | 0.00 | 0.05 | 95 | 1019.9 |
| 20260502031213 | 3 | 92 | 0.0 | 0.0 | 0.00 | 0.00 | 0.05 | 95 | 1019.9 |
| 20260502030616 | 3 | 92 | 0.0 | 0.0 | 0.00 | 0.00 | 0.05 | 94 | 1019.6 |
| 20260502030046 | 3 | 92 | 0.0 | 0.0 | 0.00 | 0.00 | 0.05 | 94 | 1019.6 |
| 20260502025414 | 3 | 92 | 0.0 | 0.0 | 0.00 | 0.00 | 0.05 | 94 | 1019.6 |
| 20260502024827 | 3 | 92 | 0.0 | 0.0 | 0.00 | 0.00 | 0.05 | 93 | 1019.3 |
| 20260502024219 | 4 | 92 | 0.0 | 0.0 | 0.00 | 0.00 | 0.05 | 93 | 1019.3 |
| 20260502023624 | 4 | 92 | 0.0 | 0.0 | 0.00 | 0.00 | 0.05 | 92 | 1019.3 |
| 20260502023047 | 5 | 92 | 1.6 | 1.6 | 0.00 | 0.00 | 0.05 | 92 | 1019.3 |
| 20260502022427 | 5 | 92 | 0.0 | 0.0 | 0.00 | 0.00 | 0.05 | 91 | 1019.3 |
| 20260502021812 | 5 | 92 | 0.0 | 1.6 | 0.00 | 0.00 | 0.05 | 90 | 1019.3 |
| 20260502021234 | 5 | 92 | 0.0 | 0.0 | 0.00 | 0.00 | 0.05 | 89 | 1018.9 |
| 20260502020614 | 5 | 92 | 0.0 | 0.0 | 0.00 | 0.00 | 0.05 | 87 | 1018.9 |
| 20260502020036 | 6 | 92 | 0.0 | 0.0 | 0.00 | 0.00 | 0.05 | 84 | 1018.9 |
| 20260502015431 | 6 | 92 | 0.0 | 1.6 | 0.00 | 0.00 | 0.05 | 82 | 1018.9 |
| 20260502014842 | 6 | 92 | 1.6 | 3.2 | 0.00 | 0.00 | 0.05 | 82 | 1018.9 |
| 20260502014227 | 6 | 93 | 3.2 | 4.8 | 0.00 | 0.00 | 0.05 | 83 | 1018.6 |
| 20260502013620 | 6 | 93 | 3.2 | 3.2 | 0.00 | 0.00 | 0.05 | 81 | 1018.6 |
| 20260502013036 | 7 | 93 | 1.6 | 1.6 | 0.00 | 0.00 | 0.05 | 77 | 1018.6 |
| 20260502012450 | 7 | 93 | 1.6 | 3.2 | 0.00 | 0.00 | 0.05 | 78 | 1018.2 |
| 20260502011841 | 7 | 117 | 3.2 | 3.2 | 0.00 | 0.00 | 0.05 | 74 | 1018.2 |
| 20260502011224 | 7 | 216 | 1.6 | 1.6 | 0.00 | 0.00 | 0.05 | 71 | 1018.2 |
| 20260502010625 | 8 | 207 | 1.6 | 3.2 | 0.00 | 0.00 | 0.05 | 71 | 1018.2 |
| 20260502010053 | 8 | 198 | 0.0 | 1.6 | 0.00 | 0.00 | 0.05 | 68 | 1017.9 |
| 20260502005446 | 8 | 255 | 3.2 | 4.8 | 0.00 | 0.00 | 0.05 | 67 | 1017.9 |
| 20260502004843 | 8 | 20 | 1.6 | 4.8 | 0.00 | 0.00 | 0.05 | 68 | 1017.6 |
| 20260502004227 | 9 | 63 | 6.4 | 9.7 | 0.00 | 0.00 | 0.05 | 66 | 1017.6 |
| 20260502003649 | 9 | 304 | 1.6 | 11.3 | 0.00 | 0.00 | 0.05 | 66 | 1017.6 |
| 20260502002449 | 10 | 12 | 6.4 | 12.9 | 0.00 | 0.00 | 0.05 | 64 | 1017.6 |
| 20260502001832 | 10 | 228 | 4.8 | 6.4 | 0.00 | 0.00 | 0.05 | 66 | 1017.2 |
| 20260502001246 | 10 | 258 | 1.6 | 6.4 | 0.00 | 0.00 | 0.05 | 67 | 1016.9 |
| 20260502000031 | 10 | 9 | 6.4 | 16.1 | 0.00 | 0.00 | 0.05 | 65 | 1016.5 |
| 20260501235453 | 11 | 328 | 3.2 | 9.7 | 0.00 | 0.00 | 0.05 | 64 | 1016.5 |
| 20260501234840 | 11 | 343 | 3.2 | 6.4 | 0.00 | 0.00 | 0.05 | 62 | 1015.9 |
| 20260501234253 | 11 | 231 | 8.0 | 9.7 | 0.00 | 0.00 | 0.05 | 62 | 1015.9 |
| 20260501233644 | 11 | 329 | 3.2 | 9.7 | 0.00 | 0.00 | 0.05 | 62 | 1015.9 |
| 20260501233024 | 11 | 301 | 0.0 | 6.4 | 0.00 | 0.00 | 0.05 | 69 | 1015.9 |
| 20260501232442 | 11 | 357 | 1.6 | 6.4 | 0.00 | 0.00 | 0.05 | 72 | 1015.5 |
| 20260501231817 | 11 | 254 | 4.8 | 4.8 | 0.00 | 0.00 | 0.05 | 73 | 1015.9 |
| 20260501231255 | 11 | 229 | 4.8 | 4.8 | 0.00 | 0.00 | 0.05 | 73 | 1015.5 |
| 20260501230650 | 11 | 242 | 6.4 | 6.4 | 0.00 | 0.00 | 0.05 | 73 | 1015.5 |
| 20260501230036 | 11 | 241 | 6.4 | 11.3 | 0.00 | 0.00 | 0.05 | 71 | 1015.5 |
| 20260501225415 | 11 | 247 | 11.3 | 12.9 | 0.00 | 0.00 | 0.05 | 71 | 1015.2 |
| 20260501224827 | 11 | 235 | 6.4 | 6.4 | 0.00 | 0.00 | 0.05 | 73 | 1015.2 |
| 20260501224233 | 12 | 255 | 8.0 | 9.7 | 0.00 | 0.00 | 0.05 | 69 | 1015.5 |
| 20260501223617 | 11 | 239 | 6.4 | 6.4 | 0.00 | 0.00 | 0.05 | 74 | 1015.5 |
| 20260501223053 | 11 | 238 | 4.8 | 11.3 | 0.00 | 0.00 | 0.05 | 72 | 1015.5 |
| 20260501222451 | 11 | 249 | 9.7 | 11.3 | 0.00 | 0.00 | 0.05 | 71 | 1015.2 |
| 20260501221839 | 11 | 255 | 3.2 | 4.8 | 0.00 | 0.00 | 0.05 | 72 | 1015.5 |
| 20260501221246 | 11 | 235 | 6.4 | 9.7 | 0.00 | 0.00 | 0.05 | 77 | 1015.5 |
| 20260501220645 | 11 | 247 | 9.7 | 9.7 | 0.00 | 0.00 | 0.05 | 74 | 1015.5 |
| 20260501220021 | 10 | 263 | 8.0 | 12.9 | 0.00 | 0.00 | 0.05 | 74 | 1015.5 |
| 20260501215415 | 11 | 242 | 8.0 | 9.7 | 0.00 | 0.00 | 0.05 | 75 | 1015.5 |
| 20260501214238 | 10 | 241 | 9.7 | 9.7 | 0.00 | 0.00 | 0.05 | 78 | 1015.5 |
| 20260501213041 | 10 | 227 | 4.8 | 6.4 | 0.00 | 0.00 | 0.05 | 79 | 1015.5 |
| 20260501211829 | 10 | 223 | 3.2 | 3.2 | 0.00 | 0.00 | 0.05 | 81 | 1015.5 |
| 20260501211210 | 10 | 211 | 1.6 | 1.6 | 0.00 | 0.00 | 0.05 | 76 | 1015.5 |
| 20260501210617 | 10 | 236 | 6.4 | 6.4 | 0.00 | 0.00 | 0.05 | 79 | 1015.5 |
| 20260501210030 | 10 | 255 | 6.4 | 4.8 | 0.00 | 0.00 | 0.05 | 77 | 1015.2 |
| 20260501205421 | 11 | 200 | 1.6 | 6.4 | 0.00 | 0.00 | 0.05 | 76 | 1015.5 |
| 20260501204849 | 11 | 206 | 3.2 | 6.4 | 0.00 | 0.00 | 0.05 | 77 | 1015.5 |
| 20260501203622 | 11 | 340 | 6.4 | 14.5 | 0.00 | 0.00 | 0.05 | 75 | 1015.5 |
| 20260501202444 | 11 | 340 | 6.4 | 11.3 | 0.00 | 0.00 | 0.05 | 79 | 1015.5 |
| 20260501201809 | 11 | 356 | 0.0 | 1.6 | 0.00 | 0.00 | 0.05 | 81 | 1015.2 |
| 20260501201239 | 11 | 12 | 0.0 | 1.6 | 0.00 | 0.00 | 0.05 | 83 | 1014.9 |
| 20260501200048 | 11 | 246 | 3.2 | 3.2 | 0.00 | 0.00 | 0.05 | 80 | 1014.9 |
| 20260501194853 | 11 | 296 | 3.2 | 4.8 | 0.00 | 0.00 | 0.05 | 77 | 1014.9 |
| 20260501194230 | 11 | 319 | 6.4 | 11.3 | 0.00 | 0.00 | 0.05 | 79 | 1015.2 |
| 20260501193623 | 11 | 241 | 1.6 | 4.8 | 0.00 | 0.00 | 0.05 | 76 | 1015.2 |
| 20260501193039 | 11 | 321 | 1.6 | 19.3 | 0.00 | 0.00 | 0.03 | 72 | 1014.9 |
| 20260501192423 | 12 | 351 | 8.0 | 12.9 | 0.00 | 0.00 | 0.03 | 68 | 1015.2 |
| 20260501191236 | 13 | 340 | 11.3 | 19.3 | 0.00 | 0.00 | 0.03 | 58 | 1014.9 |
| 20260501190646 | 14 | 241 | 6.4 | 6.4 | 0.00 | 0.00 | 0.03 | 55 | 1014.5 |
| 20260501190013 | 14 | 231 | 16.1 | 19.3 | 0.00 | 0.00 | 0.03 | 50 | 1014.5 |
| 20260501185428 | 14 | 228 | 16.1 | 17.7 | 0.00 | 0.00 | 0.03 | 49 | 1014.2 |
| 20260501184841 | 15 | 255 | 14.5 | 19.3 | 0.00 | 0.00 | 0.03 | 46 | 1014.2 |
| 20260501184223 | 15 | 247 | 12.9 | 14.5 | 0.00 | 0.00 | 0.03 | 47 | 1013.8 |
| 20260501183648 | 15 | 245 | 17.7 | 24.1 | 0.00 | 0.00 | 0.03 | 44 | 1013.8 |
| 20260501182421 | 16 | 250 | 16.1 | 19.3 | 0.00 | 0.00 | 0.03 | 42 | 1013.8 |
| 20260501181823 | 16 | 257 | 11.3 | 12.9 | 0.00 | 0.00 | 0.03 | 42 | 1013.8 |
| 20260501181238 | 15 | 225 | 4.8 | 14.5 | 0.00 | 0.00 | 0.03 | 47 | 1014.2 |
| 20260501180653 | 15 | 272 | 20.9 | 24.1 | 0.00 | 0.00 | 0.03 | 40 | 1013.8 |
| 20260501180037 | 16 | 266 | 11.3 | 14.5 | 0.00 | 0.00 | 0.03 | 44 | 1013.8 |
| 20260501172428 | 16 | 259 | 12.9 | 16.1 | 0.00 | 0.00 | 0.03 | 46 | 1013.8 |
| 20260501171232 | 15 | 238 | 11.3 | 12.9 | 0.00 | 0.00 | 0.03 | 47 | 1014.5 |
| 20260501170612 | 15 | 248 | 9.7 | 14.5 | 0.00 | 0.00 | 0.03 | 43 | 1014.2 |
| 20260501170023 | 14 | 225 | 6.4 | 11.3 | 0.00 | 0.00 | 0.03 | 50 | 1014.5 |
| 20260501164851 | 15 | 241 | 9.7 | 11.3 | 0.00 | 0.00 | 0.03 | 45 | 1014.5 |
| 20260501164237 | 15 | 247 | 12.9 | 16.1 | 0.00 | 0.00 | 0.03 | 47 | 1014.9 |
| 20260501163644 | 15 | 240 | 6.4 | 11.3 | 0.00 | 0.00 | 0.03 | 44 | 1014.9 |
| 20260501162426 | 15 | 242 | 9.7 | 12.9 | 0.00 | 0.00 | 0.03 | 47 | 1014.9 |